Location: Asheville, NC
(35.6000°N, 82.5500°W)
Time: 05:22:05
(UTC-05:00)

Vanguard 1 Rocket - Pass Details

Date: 26 January 2018
Orbit: 655 x 4222 km, 34.3° (Epoch: 17 February)

Event Time Altitude Azimuth Distance (km) Brightness Sun altitude
Exits shadow 03:58:54 27° 201° (SSW) 5,399 11.0 -43.7°
Maximum altitude 04:10:04 44° 152° (SSE) 3,713 10.4 -41.5°
Drops below altitude 10° 04:22:15 10° 86° (E) 4,419 11.6 -39.0°
Sets 04:25:10 0° 79° (E) 5,041 12.1 -38.4°
